[[{"header":{"parameterUnit":"m.s-1","parameterCategory":1,"la1":30.2992,"la2":30.254,"lo1":-89.0895,"lo2":-89.0443,"dy":0.0025,"dx":0.0025,"nx":19,"ny":19,"refTime":"2026-04-16T21:00:00:Z","depth":0,"parameterNumber":2,"parameterNumberName":"U-component_of_WINDS"},"data":[0,0,0,0.5893,0.5893,0.5893,0.5893,0.5899,0.5899,0,0,0,0,0,0,0,0,0,0,0,0.5898,0.5899,0.5893,0.5893,0.5893,0.5893,0.5899,0.5899,0,0,0,0,0,0,0,0,0,0,0,0.5898,0.5899,0.5899,0.5893,0.5893,0.5893,0.5899,0.5896,0,0,0,0,0,0,0,0,0,0,0.5895,0.5906,0.5899,0.5899,0.5893,0.5893,0.5893,0.5896,0.5897,0.5902,0,0.591,0,0.5905,0.59,0.59,0,0,0,0.5889,0.5906,0.5901,0.5899,0.5893,0.5893,0.5892,0.5896,0.5897,0.5903,0.591,0.591,0.5905,0.59,0.59,0.5949,0.5949,0,0,0.5889,0.5901,0.5901,0.5902,0.5904,0.5892,0.5892,0.5897,0.5905,0.591,0.591,0.5905,0.59,0.59,0.5948,0.5949,0,0,0,0.5892,0.5901,0.5896,0.5902,0.5901,0.5892,0.5892,0.5905,0.5902,0.591,0.5905,0.59,0.5901,0.5948,0.5948,0.5981,0,0,0,0.5891,0.5903,0.5896,0.5904,0.5901,0.5903,0.59,0.5902,0.5902,0.5905,0.59,0.5901,0.5947,0.5948,0.5979,0.5995,0,0,0,0.5896,0.5904,0.5906,0.5905,0.5905,0.5903,0.59,0.5901,0.5899,0.59,0.5901,0.5947,0.5948,0.5978,0.5992,0.601,0,0,0,0.5905,0.5936,0.5906,0.5938,0.5905,0.5924,0.59,0.5913,0.5918,0.59,0.5947,0.5948,0.5977,0.599,0.6008,0.6027,0.6037,0,0,0.595,0.5942,0.5959,0.5933,0.5959,0.5923,0.5954,0.5946,0.5935,0.5944,0.5945,0.598,0.5992,0.601,0.6085,0.6093,0,0,0,0.5977,0.599,0.5994,0.6,0.5995,0.5991,0.5978,0.5974,0.5982,0.5943,0.5991,0.5998,0.6008,0.6016,0.6023,0.603,0.5953,0.5953,0.5953,0.6059,0.6042,0.6069,0.6052,0.6057,0.6042,0.6044,0.6037,0.6019,0.603,0.6033,0.6081,0.6092,0.6096,0.6104,0.6042,0.6042,0.6042,0.6042,0.6123,0.6137,0.6111,0.6128,0.6109,0.6122,0.6107,0.6094,0.6102,0.6078,0.6086,0.6061,0.6105,0.6111,0.6045,0.6044,0.6044,0.6044,0.6044,0.6175,0.6178,0.6174,0.6178,0.6183,0.6163,0.6172,0.6155,0.6138,0.6146,0.6146,0.6145,0.6142,0.6147,0.6147,0.6148,0.6148,0.6148,0.6148,0.623,0.6223,0.6233,0.6229,0.6229,0.6226,0.6209,0.6208,0.6202,0.6188,0.6188,0.6168,0.6113,0.6099,0.6151,0.615,0.615,0.615,0.6149,0.63,0.6281,0.6296,0.6296,0.6288,0.6293,0.627,0.6268,0.6265,0.6269,0.6246,0.6209,0.6198,0.6193,0.6181,0.6251,0.6251,0.6251,0.6251,0.6343,0.6335,0.6346,0.6347,0.6345,0.6325,0.634,0.6326,0.6309,0.6305,0.6292,0.6275,0.6271,0.6263,0.6256,0.6245,0.6329,0.6329,0.6329,0.6384,0.6375,0.6393,0.6376,0.6368,0.636,0.6374,0.6373,0.6349,0.6332,0.6301,0.6298,0.627,0.6262,0.6245,0.6234,0.6214,0,0]},{"header":{"parameterUnit":"m.s-1","parameterCategory":1,"la1":30.2992,"la2":30.254,"lo1":-89.0895,"lo2":-89.0443,"dy":0.0025,"dx":0.0025,"nx":19,"ny":19,"refTime":"2026-04-16T21:00:00:Z","depth":0,"parameterNumber":3,"parameterNumberName":"V-component_of_WINDS"},"data":[0,0,0,3.8752,3.8756,3.8981,3.8982,3.9253,3.9256,0,0,0,0,0,0,0,0,0,0,0,3.868,3.8681,3.8751,3.8757,3.8981,3.8982,3.9253,3.9256,0,0,0,0,0,0,0,0,0,0,0,3.8679,3.8681,3.8683,3.8758,3.8981,3.8982,3.9252,3.9088,0,0,0,0,0,0,0,0,0,0,3.8872,3.8801,3.868,3.8683,3.8759,3.8981,3.8982,3.908,3.9098,3.9146,0,3.9192,0,3.9228,3.9273,3.9274,0,0,0,3.876,3.8786,3.8852,3.8683,3.8761,3.898,3.8881,3.909,3.911,3.917,3.9196,3.9206,3.9233,3.9275,3.9276,3.9558,3.9559,0,0,3.8747,3.8716,3.8838,3.8865,3.8834,3.8874,3.8888,3.9103,3.9126,3.9197,3.9212,3.9237,3.9277,3.9279,3.9557,3.9559,0,0,0,3.871,3.8707,3.8768,3.8854,3.8896,3.888,3.8896,3.9117,3.914,3.9216,3.9241,3.9278,3.9281,3.9556,3.9558,3.959,0,0,0,3.8702,3.8685,3.8763,3.8746,3.8892,3.901,3.8905,3.9125,3.915,3.9239,3.9278,3.9284,3.9555,3.9557,3.9586,3.9609,0,0,0,3.8667,3.8681,3.8712,3.8743,3.884,3.9007,3.9043,3.9131,3.9165,3.9274,3.9285,3.9554,3.9557,3.9583,3.9604,3.9676,0,0,0,3.8618,3.8733,3.8712,3.885,3.8838,3.9026,3.9042,3.9182,3.928,3.928,3.9555,3.9558,3.9582,3.9601,3.9673,3.9733,3.9755,0,0,3.8746,3.8747,3.8831,3.8819,3.9005,3.8995,3.9184,3.9299,3.9335,3.948,3.9488,3.9587,3.9603,3.9676,3.9887,3.9904,0,0,0,3.8861,3.8921,3.8977,3.9072,3.9166,3.9249,3.934,3.9383,3.951,3.9405,3.9633,3.9644,3.9687,3.9717,3.9732,3.9772,3.957,3.957,3.9569,3.8995,3.9041,3.9183,3.9256,3.9346,3.9441,3.9518,3.9592,3.9606,3.9659,3.9703,3.9826,3.986,3.9872,3.9913,3.9737,3.9737,3.9737,3.9737,3.9187,3.928,3.9302,3.9448,3.9494,3.9615,3.971,3.9717,3.9835,3.9796,3.9836,3.9791,3.989,3.9928,3.974,3.974,3.9739,3.9739,3.9739,3.9281,3.9334,3.9388,3.9532,3.9636,3.9703,3.9818,3.9853,3.9886,3.9926,3.9978,3.9977,3.9982,3.9948,3.9949,3.9949,3.995,3.995,3.995,3.9357,3.9418,3.9513,3.9626,3.9693,3.9784,3.9882,3.9947,4.0028,4.0045,4.0045,4.0055,3.9891,3.985,3.9957,3.9956,3.9955,3.9954,3.9954,3.9537,3.9503,3.9649,3.9717,3.9854,3.9956,4.0001,4.0131,4.019,4.0245,4.0247,4.012,4.0122,4.0111,4.0077,4.0236,4.0236,4.0237,4.0237,3.9617,3.9624,3.9783,3.9889,3.9996,4.0053,4.0214,4.0292,4.0365,4.0404,4.0385,4.0343,4.033,4.034,4.0324,4.0293,4.0504,4.0504,4.0504,3.9731,3.975,3.9882,3.9959,4.0069,4.0162,4.0316,4.0433,4.0508,4.0516,4.0435,4.0424,4.0356,4.0332,4.0337,4.031,4.0255,0,0]}]]